Flag for U.S.A. Weather past 2 weeks in Baltimore, Maryland, U.S.A.

Now
76 °F

Broken clouds.


Feels Like: 77 °F
Forecast: 66 / 83 °F
Wind: No wind

Location: Baltimore-Washington International Airport

Current Time: Jul 5, 2015 at 11:15:10 AM

Latest Report: Jul 5, 2015 at 10:54 AM


Visibility: 10 mi

Pressure: 30.14 "Hg

Humidity: 72%

Dew point: 66 °F

Location of BaltimoreLocation

Historic Weather in Baltimore — Graph

°F

Baltimore temperature yesterday

Maximum temperature yesterday: 75 °F (at 2:54 PM)
Minimum temperature yesterday: 68 °F (at 10:54 AM)
Average temperature yesterday: 72 °F

Past Weeks' High & Low Weather Summary

 TemperatureHumidityPressure
High94 °F (Jun 23, 2:54 PM)100% (Jun 28, 1:54 AM)30.14 "Hg (Jun 28, 1:54 AM)
Low59 °F (Jun 29, 4:54 AM)37% (Jun 29, 5:54 PM)29.65 "Hg (Jun 28, 1:54 AM)
Average74 °F74%29.91 "Hg
* Reported Jun 20 9:54 AM — Jul 5 9:54 AM, Baltimore, Weather by CustomWeather, © 2015

Note: Actual official high and low records may vary slightly from our data, if they occured in-between our weather recording intervals... More about our weather records

Advertising

Baltimore weather history for previous 24 hours

 ConditionsComfort  
Time TempWeatherWind HumidityBarometerVisibility
9:54 AM
Sun, Jul 5
74 °FPartly sunny.No wind74%30.14 "Hg8 mi
8:54 AM72 °FBroken clouds.3 mph78%30.14 "Hg6 mi
7:54 AM69 °FFog.No wind90%30.13 "Hg4 mi
6:54 AM67 °FFog.No wind93%30.10 "Hg4 mi
5:54 AM66 °FFog.3 mph93%30.08 "Hg3 mi
4:54 AM65 °FFog.No wind97%30.06 "Hg5 mi
3:54 AM65 °FFog.No wind97%30.06 "Hg5 mi
2:54 AM67 °FFog.3 mph93%30.05 "Hg6 mi
1:54 AM65 °FFog.No wind97%30.04 "Hg4 mi
12:54 AM67 °FFog.No wind93%30.03 "Hg5 mi
11:54 PM
Sat, Jul 4
70 °FFog.6 mph87%30.03 "Hg5 mi
10:54 PM71 °FPassing clouds.6 mph84%30.01 "Hg6 mi
9:54 PM72 °FMostly cloudy.6 mph87%30.00 "Hg8 mi
8:54 PM72 °FMore clouds than sun.3 mph84%29.97 "Hg9 mi
7:54 PM73 °FBroken clouds.No wind84%29.95 "Hg8 mi
6:54 PM74 °FMore clouds than sun.5 mph79%29.93 "Hg7 mi
5:54 PM73 °FMostly cloudy.5 mph84%29.92 "Hg10 mi
5:04 PM72 °FLight rain. Cloudy.7 mph88%29.91 "Hg7 mi
4:54 PM72 °FLight rain. Mostly cloudy.8 mph87%29.91 "Hg7 mi
3:54 PM75 °FMostly cloudy.8 mph79%29.90 "Hg9 mi
2:54 PM75 °FMore clouds than sun.5 mph79%29.90 "Hg6 mi
1:54 PM74 °FMore clouds than sun.6 mph82%29.91 "Hg9 mi
12:54 PM74 °FMostly cloudy.No wind79%29.91 "Hg9 mi
11:54 AM71 °FBroken clouds.No wind87%29.91 "Hg8 mi
Weather by CustomWeather, © 2015

See weather overviewHow to use our weather pages